EHI
0 0 0 0 1 1 1 0 0 0 0 0 0 0 1 1 1 0 0 0 0 0 0 0 0 0 0 0 0 0 0 0 0 0 0 0 0 0 0 0 0 0 0
0 0 0 0 0 0 0 0 0 0 0 0 0 1 2 2 1 0 0 0 0 0 0 0 0 0 0 0 0 0 0 0 0 0 0 0 0 0 0 0 0 0 0
0 0 0 0 0 0 0 0 0 0 0 0 0 1 2 2 1 0 0 0 0 0 0 0 0 0 0 0 0 0 0 0 0 0 0 0 0 0 0 0 0 0 0
0 0 0 0 0 0 0 0 0 0 0 0 0 0 1 1 0 0 0 0 0 0 0 0 0 0 0 0 0 0 0 0 0 0 0 0 0 0 0 0 0 0 0
0 0 0 0 0 0 0 0 0 0 0 0 0 0 0 0 0 0 0 0 0 0 0 0 0 0 0 0 0 0 0 0 0 0 0 0 0 0 0 0 0 0 0
0 0 0 0 0 0 0 0 0 0 0 0 0 0 0 0 0 0 0 0 0 0 0 0 0 0 0 0 0 0 0 0 0 0 0 0 0 0 0 0 0 0 0
0 0 0 0 0 0 0 0 0 0 0 0 0 0 0 0 0 0 0 0 0 0 0 0 0 0 0 0 0 0 0 0 0 0 0 0 0 0 0 0 0 0 0
0 0 0 0 0 0 0 0 0 0 0 0 0 0 0 0 0 0 0 0 0 0 0 0 0 0 0 0 0 0 0 0 0 0 0 0 0 0 0 0 0 0 0
0 0 0 0 0 0 0 0 0 0 0 0 0 0 0 0 0 0 0 0 0 0 0 0 0 0 0 0 0 0 0 0 0 0 0 0 0 0 0 0 0 0 0
0 0 0 0 0 0 0 0 0 0 0 0 0 0 0 0 0 0 0 0 0 0 0 0 0 0 0 0 0 0 0 0 0 0 0 0 0 0 0 0 0 0 0
0 0 0 0 0 0 0 0 0 0 0 0 0 0 0 0 0 0 0 0 0 0 0 0 0 0 0 0 0 0 0 0 0 0 0 0 0 0 0 0 0 0 0
0 0 0 0 0 0 0 0 0 0 0 0 0 0 0 0 0 0 0 0 0 0 0 0 0 0 0 0 0 0 0 0 0 0 0 0 0 0 0 0 0 0 0
0 0 0 0 0 0 0 0 0 0 0 0 0 0 0 0 0 0 0 0 0 0 0 0 0 0 0 0 0 0 0 0 0 0 0 0 0 0 0 0 0 0 0
0 0 0 0 0 0 0 0 0 0 0 0 0 0 0 0 0 0 0 0 0 0 0 0 0 0 0 0 0 0 0 0 0 0 0 0 0 0 0 0 0 0 0
0 0 0 0 0 0 0 0 0 0 0 0 0 0 0 0 0 0 0 0 0 0 0 0 0 0 0 0 0 0 0 0 0 0 0 0 0 0 0 0 0 0 0
0 0 0 0 0 0 0 0 0 0 0 0 0 0 0 0 0 0 0 0 0 0 0 0 0 0 0 0 0 0 0 0 0 0 0 0 0 0 0 0 0 0 0
0 0 0 0 0 0 0 0 0 0 0 0 0 0 0 0 0 0 0 0 0 0 0 0 0 0 0 0 0 0 0 0 0 0 0 0 0 0 0 0 0 0 0
0 0 0 0 0 0 0 0 0 0 0 0 0 0 0 0 0 0 0 0 0 0 0 0 0 0 0 0 0 0 0 0 0 0 0 0 0 0 0 0 0 0 0
0 0 0 0 0 0 0 0 0 0 0 0 0 0 0 0 0 0 0 0 0 0 0 0 0 0 0 0 0 0 0 0 0 0 0 0 0 0 0 0 0 0 0
0 0 0 0 0 0 0 0 0 0 0 0 0 0 0 0 0 0 0 0 0 0 0 0 0 0 0 0 0 0 0 0 0 0 0 0 0 0 0 0 0 0 0
0 0 0 0 0 0 0 0 0 0 0 0 0 0 0 0 0 0 0 0 0 0 0 0 0 0 0 0 0 0 0 0 0 0 0 0 0 0 0 0 0 0 0
0 0 0 0 0 0 0 0 0 0 0 0 0 0 0 0 0 0 0 0 0 0 0 0 0 0 0 0 0 0 0 0 0 0 0 0 0 0 0 0 0 0 0
0 0 0 0 0 0 0 0 0 0 0 0 0 0 0 0 0 0 0 0 0 0 0 0 0 0 0 0 0 0 0 0 0 0 0 0 0 0 0 0 0 0 0
0 0 0 0 0 0 0 0 0 0 0 0 0 0 0 0 0 0 0 0 0 0 0 0 0 0 0 0 0 0 0 0 0 0 0 0 0 0 0 0 0 0 0
0 0 0 0 0 0 0 0 0 0 0 0 0 0 0 0 0 0 0 0 0 0 0 0 0 0 0 0 0 0 0 0 0 0 0 0 0 0 0 0 0 0 0
0 0 0 0 0 0 0 0 0 0 0 0 0 0 0 0 0 0 0 0 0 0 0 0 0 0 0 0 0 0 0 0 0 0 0 0 0 0 0 0 0 0 0
Wind_Speed
5 3 4 3 3 3 3 3 3 3 3 2 2 2 2 2 1 1 2 2 2 2 2 2 2 2 2 3 3 3 3 2 2 2 2 1 1 1 0 0 1 1 0
3 2 2 3 4 4 4 4 4 4 4 3 3 2 2 2 1 1 1 2 2 2 2 3 2 2 2 3 3 3 2 2 2 3 2 1 1 1 1 0 0 0 0
3 2 2 2 3 3 4 4 4 4 4 3 3 2 2 1 1 1 1 2 2 2 2 3 3 3 3 3 3 4 4 3 2 2 3 3 3 1 1 0 0 0 0
2 1 1 1 2 3 3 3 3 3 3 4 4 4 3 2 2 2 1 1 2 2 2 3 3 3 3 3 3 3 3 4 3 1 1 1 3 3 1 1 1 1 1
1 1 2 2 2 2 3 3 3 3 3 4 5 4 2 2 1 1 1 1 1 1 2 3 3 3 3 3 3 3 3 3 4 3 2 2 1 1 2 1 1 1 1
2 1 1 1 1 1 1 2 3 3 3 4 4 4 3 2 2 1 1 1 1 1 2 2 2 3 3 4 4 4 4 4 4 3 3 3 3 3 2 2 2 2 1
2 2 2 1 1 1 1 1 2 2 2 3 3 3 3 3 3 2 2 1 1 1 2 2 3 3 3 3 4 4 4 4 5 4 3 3 2 2 2 3 2 2 1
4 2 1 1 1 1 0 1 2 2 1 2 2 2 2 2 2 2 2 2 2 2 2 2 3 3 3 3 3 3 4 4 4 5 4 3 2 2 3 3 3 2 1
5 4 3 3 2 1 1 1 2 1 1 1 1 1 1 2 2 2 1 2 1 1 2 2 2 2 2 3 3 3 4 4 4 4 4 3 3 3 3 3 3 4 3
7 6 5 4 3 2 2 0 1 1 1 1 1 1 1 1 2 1 2 2 2 1 2 2 3 2 2 2 3 2 3 4 4 4 5 4 3 3 3 3 3 3 3
8 6 5 4 3 3 2 2 1 0 0 0 0 0 0 1 1 2 2 2 2 2 3 3 3 3 3 2 2 3 3 4 4 4 5 5 4 3 3 3 3 2 2
7 7 6 5 4 4 3 2 2 1 1 0 0 1 1 1 1 2 2 2 3 3 3 3 3 3 3 3 3 3 3 4 4 4 4 5 4 4 3 3 4 3 3
8 7 6 5 4 3 3 2 2 2 1 1 0 1 1 1 2 2 2 2 2 2 2 3 3 3 3 3 4 4 4 4 4 4 5 5 5 5 3 4 4 3 3
7 7 7 6 5 3 3 3 3 2 2 1 1 1 2 2 2 2 2 2 2 2 2 2 3 3 3 3 3 3 3 3 4 4 4 4 5 5 5 4 4 4 3
8 8 7 7 6 5 4 3 3 2 2 1 1 2 2 2 2 1 1 1 1 2 2 2 2 2 2 3 3 3 3 3 3 3 3 4 5 6 6 4 4 5 4
10 9 8 8 7 6 5 4 3 3 2 1 2 2 2 2 2 1 1 1 1 1 1 2 2 2 2 4 5 4 3 3 4 3 3 3 4 5 6 6 6 6 5
10 9 8 7 7 6 5 5 4 3 2 2 2 2 2 2 2 2 1 1 1 1 1 2 2 3 3 4 4 5 3 3 3 4 3 2 2 3 3 4 4 5 6
10 9 8 7 7 6 6 4 3 3 2 2 2 3 2 2 2 2 1 1 1 1 2 2 2 2 3 4 4 3 3 2 2 2 3 3 2 3 3 2 2 2 2
10 8 7 7 6 6 6 5 4 3 3 3 3 3 3 3 3 3 2 1 1 1 1 1 2 2 3 3 3 3 2 2 2 2 2 2 2 4 4 3 2 1 1
9 8 8 7 6 6 5 5 4 4 4 4 4 4 3 3 3 3 2 1 1 1 1 1 1 2 2 3 2 3 1 2 1 1 1 2 2 3 4 3 3 2 1
10 9 8 7 6 6 5 5 4 5 5 4 4 4 3 3 3 2 2 1 1 1 1 1 1 1 2 2 2 2 2 2 2 1 1 1 2 2 2 2 2 3 2
10 10 8 8 7 5 5 5 5 5 5 4 3 3 3 2 1 1 1 1 1 1 1 0 1 1 1 1 1 2 3 3 2 2 1 1 2 2 2 1 2 3 2
9 9 8 8 7 5 5 5 6 5 4 4 3 3 3 2 1 1 1 1 0 1 1 1 1 1 0 0 0 1 2 2 2 2 3 3 3 2 2 3 3 2 2
9 8 8 8 8 7 6 6 6 5 4 4 4 3 2 2 2 1 1 1 1 1 1 1 1 1 0 0 0 1 1 2 2 2 3 4 4 3 3 3 2 2 1
8 7 7 8 8 7 6 6 5 4 4 4 3 3 2 2 2 2 1 1 1 2 2 2 2 1 1 1 1 1 1 2 2 3 2 2 2 2 2 2 2 2 1
8 8 8 8 8 8 7 6 6 4 3 3 3 2 2 1 1 1 2 3 1 1 0 1 1 0 1 1 2 2 3 4 5 4 3 2 2 2 2 1 1 1 1
Wind_Direction
256 232 207 198 188 184 179 180 175 172 153 146 153 156 173 174 170 177 174 169 169 168 165 169 169 174 175 180 166 154 149 138 129 112 94 46 48 68 67 94 95 67 138
274 241 203 184 186 188 188 185 187 177 171 169 167 164 163 173 175 171 169 176 180 180 174 177 182 181 173 171 168 156 151 147 145 136 135 115 352 335 339 40 119 102 59
238 238 208 201 195 198 195 191 192 182 173 157 139 117 103 95 122 165 191 204 209 197 183 189 182 180 178 183 186 178 164 164 175 159 153 157 199 207 312 298 298 282 169
268 242 208 203 204 207 197 184 178 172 165 153 153 156 162 177 199 193 200 222 211 208 186 188 185 181 182 183 193 187 177 166 174 166 135 141 150 158 199 307 284 255 240
268 245 230 217 211 192 180 171 156 158 163 161 163 164 165 175 160 149 182 210 215 212 189 188 184 186 188 190 190 185 182 180 180 175 163 139 116 136 161 220 267 300 263
322 321 340 22 35 119 137 147 153 161 161 163 164 168 169 165 151 158 184 205 215 212 194 188 183 186 190 194 194 191 190 191 184 183 175 167 167 172 165 188 212 245 270
343 354 10 2 13 52 131 146 154 161 161 162 169 177 177 173 181 194 194 205 221 225 212 201 195 195 197 198 192 190 197 193 189 193 192 192 192 169 167 172 194 240 278
360 1 357 353 342 347 153 154 156 165 167 169 179 177 173 176 191 200 198 209 221 217 206 205 205 206 200 200 196 197 199 195 195 198 192 192 196 180 180 175 173 212 270
3 3 3 6 352 333 291 177 154 143 150 180 175 165 173 190 200 199 201 214 228 224 198 204 206 208 204 202 197 202 204 195 197 197 196 198 199 188 193 187 189 187 220
359 2 2 359 357 345 331 330 148 173 165 148 176 180 195 218 213 189 202 215 221 212 199 202 204 207 206 203 198 200 206 203 205 196 195 202 204 196 189 191 204 199 201
346 346 348 347 352 4 4 356 356 16 21 235 219 200 239 241 225 219 222 220 216 209 207 207 207 205 201 203 205 211 199 206 208 202 198 204 194 194 194 190 197 197 194
343 344 344 351 357 357 352 352 345 345 317 276 239 234 256 257 240 240 239 231 220 215 211 205 206 210 208 204 207 217 212 208 209 207 201 206 195 196 194 193 198 203 202
345 347 349 349 348 341 334 335 332 325 327 342 316 286 270 258 258 256 248 234 224 222 213 203 209 213 214 215 217 213 217 218 218 211 206 205 194 203 200 198 197 199 204
341 342 343 342 336 331 328 326 331 333 331 334 301 286 274 262 262 265 254 241 228 221 217 216 217 218 216 218 220 214 214 218 222 217 213 208 203 205 198 200 200 194 195
342 339 337 336 337 335 335 331 326 328 320 312 289 275 281 274 268 276 277 268 247 236 222 225 229 232 226 223 221 213 214 214 220 225 222 217 214 212 207 203 196 188 190
337 336 335 336 336 333 327 325 319 319 313 288 282 285 285 280 261 255 268 272 261 244 218 225 226 232 240 246 234 222 215 215 219 227 230 225 218 219 219 216 208 196 195
333 330 326 326 326 325 321 315 311 317 325 307 298 291 283 280 273 262 247 238 238 228 230 232 225 232 245 248 238 225 216 216 219 219 218 221 216 209 204 211 212 217 220
328 327 326 325 325 325 324 320 317 314 316 314 303 296 282 278 279 267 253 250 232 221 229 239 239 242 256 252 242 227 213 214 216 213 205 203 208 205 191 182 193 219 228
321 321 321 323 322 325 325 326 322 318 315 308 301 295 286 278 269 259 249 250 235 240 247 244 237 239 258 253 240 222 205 191 198 201 195 192 198 207 194 177 178 186 278
329 328 329 333 329 326 329 329 321 316 306 301 297 296 288 275 262 254 249 253 237 240 240 259 256 247 253 251 232 200 187 180 187 179 191 202 198 200 185 174 168 179 200
330 333 334 335 329 330 334 330 319 306 304 306 304 302 292 276 262 260 257 235 228 219 236 258 282 276 261 252 225 194 183 181 170 164 178 195 178 172 175 181 178 182 158
331 334 333 332 331 336 335 327 317 313 317 316 312 308 303 291 277 253 273 242 192 183 210 231 293 304 297 272 215 199 185 166 157 167 169 154 145 135 131 145 140 133 118
326 329 329 328 331 333 335 325 322 328 331 331 325 323 318 316 306 252 246 261 214 192 222 214 234 273 281 263 216 179 159 143 137 139 133 121 114 102 96 101 106 104 108
323 325 327 328 329 330 330 324 324 330 337 332 330 328 327 328 333 303 241 213 209 204 213 219 225 248 260 171 120 132 126 117 116 113 117 108 98 90 84 77 73 74 108
321 323 323 322 325 326 325 328 328 332 337 330 327 330 332 329 336 338 315 257 231 211 207 211 201 188 208 220 185 161 154 148 141 121 102 96 98 94 83 75 72 70 77
318 321 322 323 325 325 324 331 332 331 333 330 331 332 330 329 340 358 4 14 15 29 54 142 155 101 111 102 121 131 124 124 126 109 111 107 103 107 108 103 84 75 87